Time,TemperatureF,DewpointF,PressureIn,WindDirection,WindDirectionDegrees,WindSpeedMPH,WindSpeedGustMPH,Humidity,HourlyPrecipIn,Conditions,Clouds,dailyrainin,SoftwareType,DateUTC
2013-01-02 00:05:00,18.9,0.1,30.09,NNW,338,6.0,7.0,43,0.00,,,0.00,meteohub,2013-01-02 05:05:00,
2013-01-02 00:06:00,18.7,0.0,30.09,WNW,292,6.0,10.0,43,0.00,,,0.00,meteohub,2013-01-02 05:06:00,
2013-01-02 00:07:00,18.7,0.0,30.09,NW,315,5.0,10.0,43,0.00,,,0.00,meteohub,2013-01-02 05:07:00,
2013-01-02 00:08:00,18.7,0.0,30.06,NW,315,7.0,10.0,43,0.00,,,0.00,meteohub,2013-01-02 05:08:00,
2013-01-02 00:13:00,18.7,0.0,30.06,WNW,292,6.0,10.0,43,0.00,,,0.00,meteohub,2013-01-02 05:13:00,
2013-01-02 00:18:00,18.7,0.0,30.06,WNW,292,5.0,10.0,43,0.00,,,0.00,meteohub,2013-01-02 05:18:00,
2013-01-02 00:23:00,18.5,-0.2,30.06,NW,315,5.0,9.0,43,0.00,,,0.00,meteohub,2013-01-02 05:23:00,
2013-01-02 00:29:00,18.3,-0.4,30.06,NW,315,4.0,9.0,43,0.00,,,0.00,meteohub,2013-01-02 05:29:00,
2013-01-02 00:34:00,18.1,-0.6,30.06,WNW,292,5.0,6.0,43,0.00,,,0.00,meteohub,2013-01-02 05:34:00,
2013-01-02 00:39:00,18.1,-0.6,30.06,West,270,3.0,6.0,43,0.00,,,0.00,meteohub,2013-01-02 05:39:00,
2013-01-02 00:44:00,18.0,-0.8,30.06,WNW,292,3.0,6.0,43,0.00,,,0.00,meteohub,2013-01-02 05:44:00,
2013-01-02 00:49:00,17.8,-0.4,30.06,WNW,292,6.0,6.0,44,0.00,,,0.00,meteohub,2013-01-02 05:49:00,
2013-01-02 00:55:00,17.6,-0.6,30.06,WNW,292,5.0,6.0,44,0.00,,,0.00,meteohub,2013-01-02 05:55:00,
2013-01-02 01:00:00,17.6,-0.6,30.06,WNW,292,3.0,6.0,44,0.00,,,0.00,meteohub,2013-01-02 06:00:00,
2013-01-02 01:05:00,17.4,-0.8,30.06,WNW,292,3.0,6.0,44,0.00,,,0.00,meteohub,2013-01-02 06:05:00,
2013-01-02 01:10:00,17.4,-0.2,30.06,WNW,292,6.0,8.0,45,0.00,,,0.00,meteohub,2013-01-02 06:10:00,
2013-01-02 01:16:00,17.4,-0.2,30.06,WNW,292,6.0,8.0,45,0.00,,,0.00,meteohub,2013-01-02 06:16:00,
2013-01-02 01:21:00,17.4,-0.2,30.06,WNW,292,6.0,8.0,45,0.00,,,0.00,meteohub,2013-01-02 06:21:00,
2013-01-02 01:26:00,17.2,-0.4,30.06,West,270,4.0,8.0,45,0.00,,,0.00,meteohub,2013-01-02 06:26:00,
2013-01-02 01:31:00,17.1,-0.6,30.06,WNW,292,5.0,6.0,45,0.00,,,0.00,meteohub,2013-01-02 06:31:00,
2013-01-02 01:37:00,17.1,-0.6,30.06,West,270,4.0,6.0,45,0.00,,,0.00,meteohub,2013-01-02 06:37:00,
2013-01-02 01:42:00,16.9,-0.8,30.06,West,270,3.0,5.0,45,0.00,,,0.00,meteohub,2013-01-02 06:42:00,
2013-01-02 01:47:00,16.7,-0.9,30.06,WSW,248,3.0,5.0,45,0.00,,,0.00,meteohub,2013-01-02 06:47:00,
2013-01-02 01:52:00,16.5,-1.1,30.06,WSW,248,2.0,4.0,45,0.00,,,0.00,meteohub,2013-01-02 06:52:00,
2013-01-02 01:57:00,16.2,-1.5,30.06,WNW,292,2.0,4.0,45,0.00,,,0.00,meteohub,2013-01-02 06:57:00,
2013-01-02 02:02:00,16.2,-1.5,30.06,WNW,292,0.0,4.0,45,0.00,,,0.00,meteohub,2013-01-02 07:02:00,
2013-01-02 02:07:00,16.0,-1.1,30.06,SSW,202,2.0,3.0,46,0.00,,,0.00,meteohub,2013-01-02 07:07:00,
2013-01-02 02:12:00,15.8,-0.8,30.06,SW,225,3.0,3.0,47,0.00,,,0.00,meteohub,2013-01-02 07:12:00,
2013-01-02 02:17:00,15.8,-0.4,30.06,WNW,292,2.0,3.0,48,0.00,,,0.00,meteohub,2013-01-02 07:17:00,
2013-01-02 02:22:00,15.8,0.1,30.06,West,270,2.0,3.0,49,0.00,,,0.00,meteohub,2013-01-02 07:22:00,
2013-01-02 02:28:00,15.8,-0.4,30.06,WNW,292,1.0,3.0,48,0.00,,,0.00,meteohub,2013-01-02 07:28:00,
2013-01-02 02:33:00,15.8,0.1,30.06,SW,225,2.0,3.0,49,0.00,,,0.00,meteohub,2013-01-02 07:33:00,
2013-01-02 02:38:00,15.8,0.1,30.06,WSW,248,0.0,2.0,49,0.00,,,0.00,meteohub,2013-01-02 07:38:00,
2013-01-02 02:43:00,15.8,0.1,30.06,WSW,248,2.0,2.0,49,0.00,,,0.00,meteohub,2013-01-02 07:43:00,
2013-01-02 02:49:00,15.8,0.5,30.06,WSW,248,2.0,3.0,50,0.00,,,0.00,meteohub,2013-01-02 07:49:00,
2013-01-02 02:54:00,15.8,0.5,30.06,WSW,248,2.0,3.0,50,0.00,,,0.00,meteohub,2013-01-02 07:54:00,
2013-01-02 02:59:00,16.0,0.7,30.06,WSW,248,1.0,3.0,50,0.00,,,0.00,meteohub,2013-01-02 07:59:00,
2013-01-02 03:04:00,16.0,0.7,30.06,WNW,292,3.0,3.0,50,0.00,,,0.00,meteohub,2013-01-02 08:04:00,
2013-01-02 03:09:00,16.0,0.7,30.06,WNW,292,2.0,3.0,50,0.00,,,0.00,meteohub,2013-01-02 08:09:00,
2013-01-02 03:14:00,16.0,0.7,30.06,WSW,248,2.0,3.0,50,0.00,,,0.00,meteohub,2013-01-02 08:14:00,
2013-01-02 03:19:00,16.2,0.9,30.06,West,270,3.0,3.0,50,0.00,,,0.00,meteohub,2013-01-02 08:19:00,
2013-01-02 03:25:00,16.3,1.0,30.09,West,270,3.0,3.0,50,0.00,,,0.00,meteohub,2013-01-02 08:25:00,
2013-01-02 03:30:00,16.5,1.2,30.09,WNW,292,3.0,3.0,50,0.00,,,0.00,meteohub,2013-01-02 08:30:00,
2013-01-02 03:35:00,16.5,1.2,30.09,WNW,292,4.0,4.0,50,0.00,,,0.00,meteohub,2013-01-02 08:35:00,
2013-01-02 03:40:00,16.7,1.4,30.06,WNW,292,6.0,6.0,50,0.00,,,0.00,meteohub,2013-01-02 08:40:00,
2013-01-02 03:46:00,17.1,1.2,30.06,WNW,292,5.0,6.0,49,0.00,,,0.00,meteohub,2013-01-02 08:46:00,
2013-01-02 03:51:00,17.4,1.0,30.06,WNW,292,4.0,6.0,48,0.00,,,0.00,meteohub,2013-01-02 08:51:00,
2013-01-02 03:56:00,17.8,1.4,30.09,NW,315,7.0,7.0,48,0.00,,,0.00,meteohub,2013-01-02 08:56:00,
2013-01-02 04:01:00,18.0,1.2,30.09,NW,315,5.0,8.0,47,0.00,,,0.00,meteohub,2013-01-02 09:01:00,
2013-01-02 04:06:00,18.1,0.3,30.09,WNW,292,5.0,8.0,45,0.00,,,0.00,meteohub,2013-01-02 09:06:00,
2013-01-02 04:12:00,18.3,0.5,30.09,WNW,292,7.0,8.0,45,0.00,,,0.00,meteohub,2013-01-02 09:12:00,
2013-01-02 04:17:00,18.3,0.5,30.09,WNW,292,6.0,10.0,45,0.00,,,0.00,meteohub,2013-01-02 09:17:00,
2013-01-02 04:22:00,18.3,0.5,30.09,NNW,338,9.0,10.0,45,0.00,,,0.00,meteohub,2013-01-02 09:22:00,
2013-01-02 04:27:00,18.5,0.7,30.09,WNW,292,6.0,9.0,45,0.00,,,0.00,meteohub,2013-01-02 09:27:00,
2013-01-02 04:32:00,18.5,0.7,30.09,WNW,292,6.0,9.0,45,0.00,,,0.00,meteohub,2013-01-02 09:32:00,
2013-01-02 04:37:00,18.5,0.3,30.09,NW,315,4.0,9.0,44,0.00,,,0.00,meteohub,2013-01-02 09:37:00,
2013-01-02 04:42:00,18.7,0.5,30.09,NNW,338,6.0,8.0,44,0.00,,,0.00,meteohub,2013-01-02 09:42:00,
2013-01-02 04:47:00,18.5,0.3,30.09,WNW,292,5.0,7.0,44,0.00,,,0.00,meteohub,2013-01-02 09:47:00,
2013-01-02 04:52:00,18.7,0.5,30.09,NW,315,4.0,8.0,44,0.00,,,0.00,meteohub,2013-01-02 09:52:00,
2013-01-02 04:58:00,18.7,0.5,30.09,NNW,338,4.0,8.0,44,0.00,,,0.00,meteohub,2013-01-02 09:58:00,
2013-01-02 05:03:00,18.5,0.3,30.09,NNW,338,6.0,6.0,44,0.00,,,0.00,meteohub,2013-01-02 10:03:00,
2013-01-02 05:08:00,18.7,0.5,30.09,WNW,292,4.0,6.0,44,0.00,,,0.00,meteohub,2013-01-02 10:08:00,
2013-01-02 05:13:00,18.9,0.5,30.09,NNW,338,5.0,6.0,44,0.00,,,0.00,meteohub,2013-01-02 10:13:00,
2013-01-02 05:19:00,18.9,0.5,30.09,WNW,292,5.0,6.0,44,0.00,,,0.00,meteohub,2013-01-02 10:19:00,
2013-01-02 05:24:00,19.0,0.7,30.09,WNW,292,4.0,6.0,44,0.00,,,0.00,meteohub,2013-01-02 10:24:00,
2013-01-02 05:29:00,19.0,0.7,30.09,NNW,338,3.0,6.0,44,0.00,,,0.00,meteohub,2013-01-02 10:29:00,
2013-01-02 05:34:00,18.9,0.5,30.09,NNW,338,3.0,6.0,44,0.00,,,0.00,meteohub,2013-01-02 10:34:00,
2013-01-02 05:40:00,18.7,0.5,30.09,NW,315,4.0,6.0,44,0.00,,,0.00,meteohub,2013-01-02 10:40:00,
2013-01-02 05:45:00,18.7,0.5,30.09,NNW,338,5.0,6.0,44,0.00,,,0.00,meteohub,2013-01-02 10:45:00,
2013-01-02 05:50:00,18.9,0.5,30.09,WNW,292,4.0,6.0,44,0.00,,,0.00,meteohub,2013-01-02 10:50:00,
2013-01-02 05:55:00,18.9,0.5,30.09,WNW,292,4.0,6.0,44,0.00,,,0.00,meteohub,2013-01-02 10:55:00,
2013-01-02 06:01:00,19.0,0.7,30.09,WNW,292,5.0,6.0,44,0.00,,,0.00,meteohub,2013-01-02 11:01:00,
2013-01-02 06:06:00,19.0,0.7,30.09,WNW,292,6.0,6.0,44,0.00,,,0.00,meteohub,2013-01-02 11:06:00,
2013-01-02 06:11:00,19.0,0.7,30.09,WNW,292,4.0,6.0,44,0.00,,,0.00,meteohub,2013-01-02 11:11:00,
2013-01-02 06:16:00,19.2,0.9,30.09,WNW,292,6.0,6.0,44,0.00,,,0.00,meteohub,2013-01-02 11:16:00,
2013-01-02 06:22:00,19.2,0.9,30.09,WNW,292,3.0,6.0,44,0.00,,,0.00,meteohub,2013-01-02 11:22:00,
2013-01-02 06:27:00,19.4,1.0,30.09,WNW,292,3.0,6.0,44,0.00,,,0.00,meteohub,2013-01-02 11:27:00,
2013-01-02 06:32:00,19.4,1.6,30.09,WNW,292,6.0,6.0,45,0.00,,,0.00,meteohub,2013-01-02 11:32:00,
2013-01-02 06:37:00,19.6,1.2,30.09,WNW,292,4.0,6.0,44,0.00,,,0.00,meteohub,2013-01-02 11:37:00,
2013-01-02 06:42:00,19.6,0.7,30.09,WNW,292,7.0,7.0,43,0.00,,,0.00,meteohub,2013-01-02 11:42:00,
2013-01-02 06:47:00,19.8,0.9,30.09,NNW,338,6.0,6.0,43,0.00,,,0.00,meteohub,2013-01-02 11:47:00,
2013-01-02 06:52:00,19.9,1.0,30.09,West,270,5.0,7.0,43,0.00,,,0.00,meteohub,2013-01-02 11:52:00,
2013-01-02 06:57:00,19.9,1.0,30.09,WNW,292,6.0,7.0,43,0.00,,,0.00,meteohub,2013-01-02 11:57:00,
2013-01-02 07:02:00,20.1,1.2,30.09,WNW,292,6.0,7.0,43,0.00,,,0.00,meteohub,2013-01-02 12:02:00,
2013-01-02 07:07:00,20.1,1.2,30.09,NNW,338,6.0,9.0,43,0.00,,,0.00,meteohub,2013-01-02 12:07:00,
2013-01-02 07:12:00,20.1,1.2,30.06,NNW,338,6.0,6.0,43,0.00,,,0.00,meteohub,2013-01-02 12:12:00,
2013-01-02 07:17:00,20.1,1.2,30.06,WNW,292,5.0,6.0,43,0.00,,,0.00,meteohub,2013-01-02 12:17:00,
2013-01-02 07:22:00,20.3,1.4,30.06,WNW,292,5.0,8.0,43,0.00,,,0.00,meteohub,2013-01-02 12:22:00,
2013-01-02 07:28:00,20.3,1.4,30.06,NW,315,5.0,8.0,43,0.00,,,0.00,meteohub,2013-01-02 12:28:00,
2013-01-02 07:33:00,20.3,1.4,30.06,WNW,292,4.0,6.0,43,0.00,,,0.00,meteohub,2013-01-02 12:33:00,
2013-01-02 07:38:00,20.3,1.4,30.09,WNW,292,6.0,6.0,43,0.00,,,0.00,meteohub,2013-01-02 12:38:00,
2013-01-02 07:43:00,20.5,1.6,30.09,WNW,292,3.0,8.0,43,0.00,,,0.00,meteohub,2013-01-02 12:43:00,
2013-01-02 07:49:00,20.7,1.8,30.09,NW,315,5.0,8.0,43,0.00,,,0.00,meteohub,2013-01-02 12:49:00,
2013-01-02 07:54:00,20.7,1.8,30.09,WNW,292,4.0,6.0,43,0.00,,,0.00,meteohub,2013-01-02 12:54:00,
2013-01-02 07:59:00,20.7,1.8,30.09,NW,315,4.0,6.0,43,0.00,,,0.00,meteohub,2013-01-02 12:59:00,
2013-01-02 08:04:00,20.8,1.9,30.09,NW,315,4.0,6.0,43,0.00,,,0.00,meteohub,2013-01-02 13:04:00,
2013-01-02 08:10:00,20.8,1.9,30.09,NW,315,4.0,6.0,43,0.00,,,0.00,meteohub,2013-01-02 13:10:00,
2013-01-02 08:15:00,21.0,2.1,30.09,NW,315,5.0,6.0,43,0.00,,,0.00,meteohub,2013-01-02 13:15:00,
2013-01-02 08:20:00,21.2,2.3,30.09,NNW,338,6.0,9.0,43,0.00,,,0.00,meteohub,2013-01-02 13:20:00,
2013-01-02 08:25:00,21.2,2.3,30.09,WNW,292,4.0,9.0,43,0.00,,,0.00,meteohub,2013-01-02 13:25:00,
2013-01-02 08:31:00,21.2,2.3,30.09,NW,315,4.0,9.0,43,0.00,,,0.00,meteohub,2013-01-02 13:31:00,
2013-01-02 08:36:00,21.4,1.9,30.09,NW,315,5.0,6.0,42,0.00,,,0.00,meteohub,2013-01-02 13:36:00,
2013-01-02 08:41:00,21.4,1.9,30.09,NNW,338,6.0,6.0,42,0.00,,,0.00,meteohub,2013-01-02 13:41:00,
2013-01-02 08:46:00,21.6,2.1,30.09,NNE,22,3.0,6.0,42,0.00,,,0.00,meteohub,2013-01-02 13:46:00,
2013-01-02 08:52:00,21.7,2.3,30.09,WNW,292,6.0,6.0,42,0.00,,,0.00,meteohub,2013-01-02 13:52:00,
2013-01-02 08:57:00,21.7,2.3,30.06,NW,315,4.0,6.0,42,0.00,,,0.00,meteohub,2013-01-02 13:57:00,
2013-01-02 09:02:00,21.9,2.3,30.06,NNW,338,5.0,6.0,42,0.00,,,0.00,meteohub,2013-01-02 14:02:00,
2013-01-02 09:07:00,21.9,2.3,30.06,NW,315,4.0,8.0,42,0.00,,,0.00,meteohub,2013-01-02 14:07:00,
2013-01-02 09:12:00,22.1,2.5,30.09,NNW,338,5.0,8.0,42,0.00,,,0.00,meteohub,2013-01-02 14:12:00,
2013-01-02 09:17:00,22.3,2.7,30.09,NNW,338,6.0,8.0,42,0.00,,,0.00,meteohub,2013-01-02 14:17:00,
2013-01-02 09:22:00,22.5,2.8,30.09,NNW,338,5.0,8.0,42,0.00,,,0.00,meteohub,2013-01-02 14:22:00,
2013-01-02 09:27:00,22.6,3.0,30.09,WNW,292,4.0,8.0,42,0.00,,,0.00,meteohub,2013-01-02 14:27:00,
2013-01-02 09:32:00,22.8,3.2,30.09,NW,315,7.0,8.0,42,0.00,,,0.00,meteohub,2013-01-02 14:32:00,
2013-01-02 09:37:00,22.8,2.7,30.09,NNW,338,6.0,11.0,41,0.00,,,0.00,meteohub,2013-01-02 14:37:00,
2013-01-02 09:42:00,22.8,2.7,30.12,NW,315,6.0,11.0,41,0.00,,,0.00,meteohub,2013-01-02 14:42:00,
2013-01-02 09:47:00,23.0,2.3,30.12,NW,315,8.0,11.0,40,0.00,,,0.00,meteohub,2013-01-02 14:47:00,
2013-01-02 09:52:00,23.0,2.3,30.12,NW,315,6.0,11.0,40,0.00,,,0.00,meteohub,2013-01-02 14:52:00,
2013-01-02 09:57:00,23.2,2.5,30.12,NNW,338,9.0,12.0,40,0.00,,,0.00,meteohub,2013-01-02 14:57:00,
2013-01-02 10:02:00,23.2,2.5,30.12,NNW,338,8.0,12.0,40,0.00,,,0.00,meteohub,2013-01-02 15:02:00,
2013-01-02 10:07:00,23.2,1.9,30.12,NNW,338,8.0,12.0,39,0.00,,,0.00,meteohub,2013-01-02 15:07:00,
2013-01-02 10:12:00,23.4,2.1,30.12,NW,315,10.0,16.0,39,0.00,,,0.00,meteohub,2013-01-02 15:12:00,
2013-01-02 10:17:00,23.4,2.7,30.12,NW,315,9.0,16.0,40,0.00,,,0.00,meteohub,2013-01-02 15:17:00,
2013-01-02 10:23:00,23.5,2.3,30.15,WNW,292,10.0,16.0,39,0.00,,,0.00,meteohub,2013-01-02 15:23:00,
2013-01-02 10:28:00,23.5,2.8,30.15,NW,315,10.0,13.0,40,0.00,,,0.00,meteohub,2013-01-02 15:28:00,
2013-01-02 10:33:00,23.5,3.4,30.15,NNW,338,11.0,13.0,41,0.00,,,0.00,meteohub,2013-01-02 15:33:00,
2013-01-02 10:39:00,23.5,2.8,30.12,WNW,292,8.0,15.0,40,0.00,,,0.00,meteohub,2013-01-02 15:39:00,
2013-01-02 10:44:00,23.5,3.4,30.12,WNW,292,11.0,15.0,41,0.00,,,0.00,meteohub,2013-01-02 15:44:00,
2013-01-02 10:49:00,23.7,4.1,30.12,NW,315,9.0,15.0,42,0.00,,,0.00,meteohub,2013-01-02 15:49:00,
2013-01-02 10:55:00,23.7,3.6,30.12,WNW,292,9.0,15.0,41,0.00,,,0.00,meteohub,2013-01-02 15:55:00,
2013-01-02 11:00:00,23.7,3.6,30.12,NW,315,9.0,12.0,41,0.00,,,0.00,meteohub,2013-01-02 16:00:00,
2013-01-02 11:05:00,23.7,3.6,30.12,WNW,292,10.0,13.0,41,0.00,,,0.00,meteohub,2013-01-02 16:05:00,
2013-01-02 11:10:00,23.9,3.7,30.15,NW,315,8.0,14.0,41,0.00,,,0.00,meteohub,2013-01-02 16:10:00,
2013-01-02 11:16:00,23.9,4.1,30.15,NW,315,10.0,14.0,42,0.00,,,0.00,meteohub,2013-01-02 16:16:00,
2013-01-02 11:21:00,23.9,4.1,30.15,NW,315,7.0,11.0,42,0.00,,,0.00,meteohub,2013-01-02 16:21:00,
2013-01-02 11:26:00,24.1,4.3,30.15,WNW,292,10.0,11.0,42,0.00,,,0.00,meteohub,2013-01-02 16:26:00,
2013-01-02 11:32:00,24.3,4.5,30.15,NNW,338,8.0,11.0,42,0.00,,,0.00,meteohub,2013-01-02 16:32:00,
2013-01-02 11:37:00,24.3,3.4,30.15,NW,315,8.0,11.0,40,0.00,,,0.00,meteohub,2013-01-02 16:37:00,
2013-01-02 11:42:00,24.3,3.9,30.15,NNW,338,8.0,11.0,41,0.00,,,0.00,meteohub,2013-01-02 16:42:00,
2013-01-02 11:47:00,24.3,3.4,30.15,NW,315,8.0,13.0,40,0.00,,,0.00,meteohub,2013-01-02 16:47:00,
2013-01-02 11:52:00,24.3,3.9,30.15,WNW,292,11.0,13.0,41,0.00,,,0.00,meteohub,2013-01-02 16:52:00,
2013-01-02 11:57:00,24.3,3.4,30.12,NNW,338,11.0,13.0,40,0.00,,,0.00,meteohub,2013-01-02 16:57:00,
2013-01-02 12:02:00,24.3,3.4,30.12,NNW,338,6.0,14.0,40,0.00,,,0.00,meteohub,2013-01-02 17:02:00,
2013-01-02 12:07:00,24.3,3.9,30.15,WNW,292,10.0,14.0,41,0.00,,,0.00,meteohub,2013-01-02 17:07:00,
2013-01-02 12:14:00,24.4,4.1,30.15,NW,315,6.0,11.0,41,0.00,,,0.00,meteohub,2013-01-02 17:14:00,
2013-01-02 12:19:00,24.4,3.6,30.15,NW,315,6.0,11.0,40,0.00,,,0.00,meteohub,2013-01-02 17:19:00,
2013-01-02 12:24:00,24.6,3.7,30.15,NW,315,7.0,11.0,40,0.00,,,0.00,meteohub,2013-01-02 17:24:00,
2013-01-02 12:30:00,24.8,3.4,30.15,WNW,292,7.0,11.0,39,0.00,,,0.00,meteohub,2013-01-02 17:30:00,
2013-01-02 12:35:00,24.8,2.8,30.15,NNW,338,8.0,11.0,38,0.00,,,0.00,meteohub,2013-01-02 17:35:00,
2013-01-02 12:40:00,25.2,3.2,30.15,WNW,292,6.0,11.0,38,0.00,,,0.00,meteohub,2013-01-02 17:40:00,
2013-01-02 12:46:00,25.2,3.2,30.15,NNW,338,9.0,11.0,38,0.00,,,0.00,meteohub,2013-01-02 17:46:00,
2013-01-02 12:51:00,25.3,3.4,30.15,NNW,338,8.0,11.0,38,0.00,,,0.00,meteohub,2013-01-02 17:51:00,
2013-01-02 12:56:00,25.2,1.4,30.12,NW,315,9.0,10.0,35,0.00,,,0.00,meteohub,2013-01-02 17:56:00,
2013-01-02 13:01:00,25.3,2.1,30.12,NNW,338,5.0,13.0,36,0.00,,,0.00,meteohub,2013-01-02 18:01:00,
2013-01-02 13:07:00,25.3,2.7,30.12,NW,315,6.0,13.0,37,0.00,,,0.00,meteohub,2013-01-02 18:07:00,
2013-01-02 13:12:00,25.3,3.4,30.12,NW,315,7.0,11.0,38,0.00,,,0.00,meteohub,2013-01-02 18:12:00,
2013-01-02 13:17:00,25.3,2.7,30.12,NNW,338,12.0,12.0,37,0.00,,,0.00,meteohub,2013-01-02 18:17:00,
2013-01-02 13:22:00,25.3,2.1,30.12,NNW,338,9.0,12.0,36,0.00,,,0.00,meteohub,2013-01-02 18:22:00,
2013-01-02 13:27:00,25.2,1.9,30.12,WNW,292,6.0,12.0,36,0.00,,,0.00,meteohub,2013-01-02 18:27:00,
2013-01-02 13:32:00,25.2,2.7,30.12,WNW,292,10.0,12.0,37,0.00,,,0.00,meteohub,2013-01-02 18:32:00,
2013-01-02 13:37:00,25.2,2.7,30.12,WNW,292,6.0,11.0,37,0.00,,,0.00,meteohub,2013-01-02 18:37:00,
2013-01-02 13:42:00,25.3,3.4,30.15,WNW,292,6.0,11.0,38,0.00,,,0.00,meteohub,2013-01-02 18:42:00,
2013-01-02 13:47:00,25.2,3.2,30.15,WNW,292,10.0,11.0,38,0.00,,,0.00,meteohub,2013-01-02 18:47:00,
2013-01-02 13:52:00,25.2,3.7,30.15,NNW,338,8.0,11.0,39,0.00,,,0.00,meteohub,2013-01-02 18:52:00,
2013-01-02 13:57:00,25.2,3.7,30.15,NNW,338,6.0,11.0,39,0.00,,,0.00,meteohub,2013-01-02 18:57:00,
2013-01-02 14:02:00,25.2,3.2,30.15,WNW,292,8.0,11.0,38,0.00,,,0.00,meteohub,2013-01-02 19:02:00,
2013-01-02 14:07:00,25.2,3.7,30.15,WNW,292,8.0,11.0,39,0.00,,,0.00,meteohub,2013-01-02 19:07:00,
2013-01-02 14:12:00,25.2,4.3,30.12,WNW,292,6.0,11.0,40,0.00,,,0.00,meteohub,2013-01-02 19:12:00,
2013-01-02 14:17:00,25.2,3.7,30.12,NW,315,8.0,11.0,39,0.00,,,0.00,meteohub,2013-01-02 19:17:00,
2013-01-02 14:22:00,25.2,4.3,30.12,WNW,292,7.0,11.0,40,0.00,,,0.00,meteohub,2013-01-02 19:22:00,
2013-01-02 14:27:00,25.2,4.8,30.12,WNW,292,9.0,11.0,41,0.00,,,0.00,meteohub,2013-01-02 19:27:00,
2013-01-02 14:32:00,25.2,4.8,30.12,WNW,292,8.0,10.0,41,0.00,,,0.00,meteohub,2013-01-02 19:32:00,
2013-01-02 14:37:00,25.2,4.8,30.12,NW,315,6.0,10.0,41,0.00,,,0.00,meteohub,2013-01-02 19:37:00,
2013-01-02 14:42:00,25.2,4.8,30.12,NW,315,5.0,10.0,41,0.00,,,0.00,meteohub,2013-01-02 19:42:00,
2013-01-02 14:47:00,25.2,4.8,30.12,WNW,292,6.0,9.0,41,0.00,,,0.00,meteohub,2013-01-02 19:47:00,
2013-01-02 14:52:00,25.2,5.4,30.12,WNW,292,5.0,8.0,42,0.00,,,0.00,meteohub,2013-01-02 19:52:00,
2013-01-02 14:57:00,25.2,4.8,30.12,WNW,292,6.0,8.0,41,0.00,,,0.00,meteohub,2013-01-02 19:57:00,
2013-01-02 15:02:00,25.3,5.5,30.12,WNW,292,7.0,8.0,42,0.00,,,0.00,meteohub,2013-01-02 20:02:00,
2013-01-02 15:07:00,25.2,5.4,30.12,WNW,292,5.0,8.0,42,0.00,,,0.00,meteohub,2013-01-02 20:07:00,
2013-01-02 15:12:00,25.3,5.5,30.12,WNW,292,6.0,8.0,42,0.00,,,0.00,meteohub,2013-01-02 20:12:00,
2013-01-02 15:18:00,25.3,5.5,30.12,WNW,292,5.0,7.0,42,0.00,,,0.00,meteohub,2013-01-02 20:18:00,
2013-01-02 15:23:00,25.3,5.5,30.12,WNW,292,4.0,8.0,42,0.00,,,0.00,meteohub,2013-01-02 20:23:00,
2013-01-02 15:28:00,25.3,5.5,30.12,WNW,292,3.0,8.0,42,0.00,,,0.00,meteohub,2013-01-02 20:28:00,
2013-01-02 15:33:00,25.3,5.5,30.12,NW,315,4.0,8.0,42,0.00,,,0.00,meteohub,2013-01-02 20:33:00,
2013-01-02 15:38:00,25.3,5.5,30.12,NW,315,3.0,6.0,42,0.00,,,0.00,meteohub,2013-01-02 20:38:00,
2013-01-02 15:44:00,25.3,5.5,30.12,WNW,292,3.0,5.0,42,0.00,,,0.00,meteohub,2013-01-02 20:44:00,
2013-01-02 15:49:00,25.3,5.5,30.12,WNW,292,4.0,4.0,42,0.00,,,0.00,meteohub,2013-01-02 20:49:00,
2013-01-02 15:54:00,25.3,5.5,30.12,WNW,292,3.0,5.0,42,0.00,,,0.00,meteohub,2013-01-02 20:54:00,
2013-01-02 15:59:00,25.3,5.5,30.12,WNW,292,4.0,6.0,42,0.00,,,0.00,meteohub,2013-01-02 20:59:00,
2013-01-02 16:05:00,25.3,5.5,30.12,West,270,2.0,6.0,42,0.00,,,0.00,meteohub,2013-01-02 21:05:00,
2013-01-02 16:10:00,25.3,5.5,30.12,NNW,338,3.0,6.0,42,0.00,,,0.00,meteohub,2013-01-02 21:10:00,
2013-01-02 16:15:00,25.3,5.5,30.12,WNW,292,2.0,6.0,42,0.00,,,0.00,meteohub,2013-01-02 21:15:00,
2013-01-02 16:20:00,25.3,5.5,30.12,WNW,292,2.0,3.0,42,0.00,,,0.00,meteohub,2013-01-02 21:20:00,
2013-01-02 16:25:00,25.3,5.5,30.15,WNW,292,2.0,3.0,42,0.00,,,0.00,meteohub,2013-01-02 21:25:00,
2013-01-02 16:31:00,25.3,6.1,30.15,WNW,292,3.0,3.0,43,0.00,,,0.00,meteohub,2013-01-02 21:31:00,
2013-01-02 16:45:00,25.3,6.4,30.15,WSW,248,2.0,3.0,44,0.00,,,0.00,meteohub,2013-01-02 21:45:00,
2013-01-02 16:50:00,25.3,6.4,30.15,West,270,2.0,4.0,44,0.00,,,0.00,meteohub,2013-01-02 21:50:00,
2013-01-02 16:55:00,25.2,6.3,30.15,West,270,2.0,4.0,44,0.00,,,0.00,meteohub,2013-01-02 21:55:00,
2013-01-02 17:00:00,25.2,6.3,30.15,West,270,1.0,3.0,44,0.00,,,0.00,meteohub,2013-01-02 22:00:00,
2013-01-02 17:06:00,25.2,6.3,30.15,WSW,248,1.0,3.0,44,0.00,,,0.00,meteohub,2013-01-02 22:06:00,
2013-01-02 17:11:00,25.2,6.3,30.15,SSW,202,0.0,2.0,44,0.00,,,0.00,meteohub,2013-01-02 22:11:00,
2013-01-02 17:16:00,25.2,6.3,30.15,WSW,248,2.0,2.0,44,0.00,,,0.00,meteohub,2013-01-02 22:16:00,
2013-01-02 17:21:00,25.2,6.8,30.15,WSW,248,2.0,2.0,45,0.00,,,0.00,meteohub,2013-01-02 22:21:00,
2013-01-02 17:26:00,25.2,6.8,30.15,WSW,248,1.0,2.0,45,0.00,,,0.00,meteohub,2013-01-02 22:26:00,
2013-01-02 17:32:00,25.2,6.8,30.15,WSW,248,0.0,2.0,45,0.00,,,0.00,meteohub,2013-01-02 22:32:00,
2013-01-02 17:37:00,25.2,6.3,30.15,WSW,248,2.0,2.0,44,0.00,,,0.00,meteohub,2013-01-02 22:37:00,
2013-01-02 17:42:00,25.2,6.3,30.15,SSW,202,0.0,2.0,44,0.00,,,0.00,meteohub,2013-01-02 22:42:00,
2013-01-02 17:47:00,25.2,6.8,30.15,SSW,202,3.0,3.0,45,0.00,,,0.00,meteohub,2013-01-02 22:47:00,
2013-01-02 17:52:00,25.2,6.8,30.15,SSW,202,0.0,3.0,45,0.00,,,0.00,meteohub,2013-01-02 22:52:00,
2013-01-02 17:57:00,25.0,6.3,30.15,SSW,202,0.0,3.0,44,0.00,,,0.00,meteohub,2013-01-02 22:57:00,
2013-01-02 18:02:00,25.0,6.3,30.15,SSW,202,0.0,3.0,44,0.00,,,0.00,meteohub,2013-01-02 23:02:00,
2013-01-02 18:07:00,25.0,6.3,30.15,WSW,248,0.0,1.0,44,0.00,,,0.00,meteohub,2013-01-02 23:07:00,
2013-01-02 18:12:00,25.0,6.3,30.15,WSW,248,0.0,1.0,44,0.00,,,0.00,meteohub,2013-01-02 23:12:00,
2013-01-02 18:17:00,25.0,6.3,30.15,WSW,248,0.0,1.0,44,0.00,,,0.00,meteohub,2013-01-02 23:17:00,
2013-01-02 18:22:00,25.0,6.3,30.15,WSW,248,0.0,0.0,44,0.00,,,0.00,meteohub,2013-01-02 23:22:00,
2013-01-02 18:27:00,25.0,6.3,30.12,SSE,158,0.0,0.0,44,0.00,,,0.00,meteohub,2013-01-02 23:27:00,
2013-01-02 18:32:00,25.0,6.3,30.12,SSE,158,0.0,2.0,44,0.00,,,0.00,meteohub,2013-01-02 23:32:00,
2013-01-02 18:37:00,25.0,6.3,30.12,SSE,158,0.0,2.0,44,0.00,,,0.00,meteohub,2013-01-02 23:37:00,
2013-01-02 18:42:00,25.0,6.3,30.15,SSE,158,0.0,0.0,44,0.00,,,0.00,meteohub,2013-01-02 23:42:00,
2013-01-02 19:05:00,24.8,6.4,30.15,South,180,0.0,1.0,45,0.00,,,0.00,meteohub,2013-01-03 00:05:00,
2013-01-02 19:10:00,24.8,6.4,30.15,SSW,202,0.0,1.0,45,0.00,,,0.00,meteohub,2013-01-03 00:10:00,
2013-01-02 19:16:00,25.0,6.6,30.15,SSW,202,1.0,3.0,45,0.00,,,0.00,meteohub,2013-01-03 00:16:00,
2013-01-02 19:21:00,25.0,6.6,30.15,WSW,248,1.0,3.0,45,0.00,,,0.00,meteohub,2013-01-03 00:21:00,
2013-01-02 19:26:00,25.0,7.2,30.15,SSE,158,3.0,3.0,46,0.00,,,0.00,meteohub,2013-01-03 00:26:00,
2013-01-02 19:32:00,25.2,6.8,30.15,South,180,2.0,4.0,45,0.00,,,0.00,meteohub,2013-01-03 00:32:00,
2013-01-02 19:37:00,25.2,6.8,30.15,SSW,202,2.0,4.0,45,0.00,,,0.00,meteohub,2013-01-03 00:37:00,
2013-01-02 19:42:00,25.0,6.6,30.18,South,180,2.0,4.0,45,0.00,,,0.00,meteohub,2013-01-03 00:42:00,
2013-01-02 19:47:00,24.8,6.4,30.18,WSW,248,3.0,4.0,45,0.00,,,0.00,meteohub,2013-01-03 00:47:00,
2013-01-02 19:52:00,24.6,6.3,30.18,West,270,5.0,5.0,45,0.00,,,0.00,meteohub,2013-01-03 00:52:00,
2013-01-02 20:03:00,24.4,6.6,30.18,South,180,2.0,6.0,46,0.00,,,0.00,meteohub,2013-01-03 01:03:00,
2013-01-02 20:08:00,24.3,6.4,30.18,South,180,2.0,6.0,46,0.00,,,0.00,meteohub,2013-01-03 01:08:00,
2013-01-02 20:13:00,24.3,7.0,30.15,SW,225,0.0,5.0,47,0.00,,,0.00,meteohub,2013-01-03 01:13:00,
2013-01-02 20:18:00,24.1,6.8,30.15,SSE,158,2.0,5.0,47,0.00,,,0.00,meteohub,2013-01-03 01:18:00,
2013-01-02 20:23:00,24.1,7.3,30.15,West,270,3.0,5.0,48,0.00,,,0.00,meteohub,2013-01-03 01:23:00,
2013-01-02 20:46:00,23.7,7.0,30.15,SSW,202,0.0,4.0,48,0.00,,,0.00,meteohub,2013-01-03 01:46:00,
2013-01-02 20:51:00,23.7,7.0,30.15,SSW,202,2.0,3.0,48,0.00,,,0.00,meteohub,2013-01-03 01:51:00,
2013-01-02 21:05:00,23.5,7.2,30.15,SSE,158,2.0,3.0,49,0.00,,,0.00,meteohub,2013-01-03 02:05:00,
2013-01-02 21:10:00,23.5,7.2,30.15,SSW,202,0.0,2.0,49,0.00,,,0.00,meteohub,2013-01-03 02:10:00,
2013-01-02 21:15:00,23.5,7.2,30.15,SSW,202,0.0,2.0,49,0.00,,,0.00,meteohub,2013-01-03 02:15:00,
2013-01-02 21:20:00,23.5,7.2,30.15,SSW,202,0.0,3.0,49,0.00,,,0.00,meteohub,2013-01-03 02:20:00,
2013-01-02 21:26:00,23.5,7.2,30.15,South,180,0.0,3.0,49,0.00,,,0.00,meteohub,2013-01-03 02:26:00,
2013-01-02 21:31:00,23.5,7.2,30.15,SSE,158,0.0,3.0,49,0.00,,,0.00,meteohub,2013-01-03 02:31:00,
2013-01-02 21:36:00,23.5,7.7,30.15,WSW,248,2.0,3.0,50,0.00,,,0.00,meteohub,2013-01-03 02:36:00,
2013-01-02 21:42:00,23.5,8.1,30.15,SSW,202,3.0,3.0,51,0.00,,,0.00,meteohub,2013-01-03 02:42:00,
2013-01-02 21:47:00,23.5,8.1,30.15,SW,225,2.0,3.0,51,0.00,,,0.00,meteohub,2013-01-03 02:47:00,
2013-01-02 21:52:00,23.5,8.1,30.15,WSW,248,2.0,3.0,51,0.00,,,0.00,meteohub,2013-01-03 02:52:00,
2013-01-02 21:57:00,23.5,8.1,30.15,South,180,1.0,3.0,51,0.00,,,0.00,meteohub,2013-01-03 02:57:00,
2013-01-02 22:03:00,23.5,8.1,30.15,SSE,158,2.0,3.0,51,0.00,,,0.00,meteohub,2013-01-03 03:03:00,
2013-01-02 22:08:00,23.5,8.1,30.15,South,180,0.0,3.0,51,0.00,,,0.00,meteohub,2013-01-03 03:08:00,
2013-01-02 22:13:00,23.5,8.1,30.15,SW,225,0.0,3.0,51,0.00,,,0.00,meteohub,2013-01-03 03:13:00,
2013-01-02 22:18:00,23.5,8.6,30.15,SW,225,3.0,3.0,52,0.00,,,0.00,meteohub,2013-01-03 03:18:00,
2013-01-02 22:24:00,23.5,8.6,30.15,WSW,248,2.0,3.0,52,0.00,,,0.00,meteohub,2013-01-03 03:24:00,
2013-01-02 22:29:00,23.5,8.1,30.15,SSW,202,0.0,3.0,51,0.00,,,0.00,meteohub,2013-01-03 03:29:00,
2013-01-02 22:35:00,23.5,8.1,30.15,WSW,248,0.0,3.0,51,0.00,,,0.00,meteohub,2013-01-03 03:35:00,
2013-01-02 22:44:00,23.5,8.6,30.15,SSW,202,2.0,3.0,52,0.00,,,0.00,meteohub,2013-01-03 03:44:00,
2013-01-02 22:49:00,23.5,8.1,30.18,SSW,202,0.0,3.0,51,0.00,,,0.00,meteohub,2013-01-03 03:49:00,
2013-01-02 22:54:00,23.5,8.1,30.15,SSW,202,0.0,3.0,51,0.00,,,0.00,meteohub,2013-01-03 03:54:00,
2013-01-02 22:59:00,23.4,8.4,30.15,WSW,248,0.0,3.0,52,0.00,,,0.00,meteohub,2013-01-03 03:59:00,
2013-01-02 23:04:00,23.4,8.4,30.15,SSW,202,0.0,3.0,52,0.00,,,0.00,meteohub,2013-01-03 04:04:00,
2013-01-02 23:10:00,23.4,8.4,30.15,WSW,248,1.0,5.0,52,0.00,,,0.00,meteohub,2013-01-03 04:10:00,
2013-01-02 23:15:00,23.4,8.4,30.15,SW,225,2.0,5.0,52,0.00,,,0.00,meteohub,2013-01-03 04:15:00,
2013-01-02 23:25:00,23.4,8.4,30.15,WSW,248,0.0,3.0,52,0.00,,,0.00,meteohub,2013-01-03 04:25:00,
2013-01-02 23:31:00,23.4,8.4,30.15,SW,225,0.0,3.0,52,0.00,,,0.00,meteohub,2013-01-03 04:31:00,
2013-01-02 23:36:00,23.4,8.4,30.15,SSE,158,0.0,4.0,52,0.00,,,0.00,meteohub,2013-01-03 04:36:00,
2013-01-02 23:45:00,23.2,7.7,30.15,WSW,248,3.0,5.0,51,0.00,,,0.00,meteohub,2013-01-03 04:45:00,